Flag for Canada Weather past 2 weeks in Timmins, Ontario, Canada

Now
39 °F

Drizzle. Fog.


Feels Like: 32 °F
Forecast: 35 / 49 °F
Wind: 13 mph from South

Location: Timmins


UV Index: 0 (Low)

Visibility: 5 mi


Pressure: 30.10 "Hg

Humidity: 87%

Dew point: 36 °F

Location of TimminsLocation

Historic Weather in Timmins

°F

Timmins temperature yesterday

Maximum temperature yesterday: 45 °F (at 6:00 PM)
Minimum temperature yesterday: 16 °F (at 6:00 AM)
Average temperature yesterday: 32 °F

Past Weeks' High & Low Weather Summary

 TemperatureHumidityPressure
High54 °F (Apr 10, 4:00 PM)100% (Apr 13, 11:00 PM)30.59 "Hg (Apr 13, 11:00 PM)
Low-11 °F (Apr 16, 5:00 AM)23% (Apr 9, 6:00 PM)29.27 "Hg (Apr 10, 2:00 PM)
Average30 °F66%29.99 "Hg
* Reported Apr 5 12:00 Noon — Apr 20 12:00 Noon, Timmins, Weather by CustomWeather, © 2014

Note: Actual official high and low records may vary slightly from our data, if they occured in-between our weather recording intervals... More about our weather records

Advertising

Historic Weather Conditions — Data for Previous 24 hours

 ConditionsComfort  
Time TempWeatherWind HumidityBarometerVisibility
12:00 PM
Apr 20
39 °FMostly cloudy.14 mph81%30.12 "Hg15 mi
11:00 AM41 °FMostly cloudy.17 mph66%30.14 "Hg15 mi
10:00 AM41 °FOvercast.14 mph57%30.16 "Hg15 mi
9:00 AM39 °FOvercast.14 mph61%30.19 "Hg15 mi
8:00 AM37 °FOvercast.10 mph60%30.21 "Hg15 mi
7:00 AM37 °FMostly cloudy.13 mph52%30.23 "Hg15 mi
6:00 AM37 °FMostly cloudy.12 mph48%30.24 "Hg15 mi
5:00 AM37 °FOvercast.13 mph48%30.27 "Hg15 mi
4:00 AM37 °FOvercast.10 mph45%30.29 "Hg15 mi
3:00 AM37 °FOvercast.9 mph45%30.31 "Hg15 mi
2:00 AM37 °FOvercast.9 mph45%30.33 "Hg15 mi
1:00 AM39 °FOvercast.9 mph42%30.34 "Hg15 mi
12:00 AM39 °FOvercast.8 mph42%30.34 "Hg15 mi
11:00 PM
Apr 19
39 °FOvercast.15 mph36%30.36 "Hg15 mi
10:00 PM39 °FOvercast.7 mph42%30.37 "Hg15 mi
9:00 PM39 °FOvercast.7 mph36%30.38 "Hg15 mi
8:00 PM41 °FMostly cloudy.8 mph33%30.39 "Hg15 mi
7:00 PM43 °FMostly cloudy.6 mph31%30.40 "Hg15 mi
6:00 PM45 °FPartly sunny.5 mph25%30.42 "Hg15 mi
5:00 PM43 °FOvercast.8 mph24%30.43 "Hg15 mi
4:00 PM43 °FPartly sunny.6 mph24%30.47 "Hg15 mi
3:00 PM41 °FPartly sunny.7 mph33%30.50 "Hg15 mi
2:00 PM39 °FScattered clouds.6 mph36%30.50 "Hg15 mi
1:00 PM39 °FScattered clouds.6 mph30%30.51 "Hg15 mi
Weather by CustomWeather, © 2014

See weather overview